Stations météo

réclame
Mon MeteoGroup
St-Etienne Boutheon, France (7475): Température de l'air & dewpoint: 09.10.2019 21:00:00 - 15.10.2019 21:00:00 (CEST)St-Etienne Boutheon, France (7475): Température de l'air 5cm: 09.10.2019 21:00:00 - 15.10.2019 21:00:00 (CEST)St-Etienne Boutheon, France (7475): Température de l'air -20cm & Température de l'air -100cm: 09.10.2019 21:00:00 - 15.10.2019 21:00:00 (CEST)St-Etienne Boutheon, France (7475): Vitesse du vent & gusts: 09.10.2019 21:00:00 - 15.10.2019 21:00:00 (CEST)St-Etienne Boutheon, France (7475): Direction du vent: 09.10.2019 21:00:00 - 15.10.2019 21:00:00 (CEST)St-Etienne Boutheon, France (7475): reduced air pressure: 09.10.2019 21:00:00 - 15.10.2019 21:00:00 (CEST)St-Etienne Boutheon, France (7475): visibility: 09.10.2019 21:00:00 - 15.10.2019 21:00:00 (CEST)St-Etienne Boutheon, France (7475): Ensoleillement: 09.10.2019 21:00:00 - 15.10.2019 21:00:00 (CEST)St-Etienne Boutheon, France (7475): Quantités de précipitations: 09.10.2019 21:00:00 - 15.10.2019 21:00:00 (CEST)
Date & Time tt [°C] td [°C] tt 5cm [°C] tt -20cm [°C] tt -100cm [°C] ff [km/h] ff [knt] fx [km/h] fx [knt] dd ppp [hPa] vv [km] sd [min] rr [mm]
15.10.2019 21:00:00 8,3 6,4 5,5 15,8 16,5 13 7 16 8 S 1018,1 60 0 0,0
15.10.2019 20:00:00 9,5 7,6 6,4 16,0 16,5 6 4 9 5 SSE 1017,3 60 0 0,0
15.10.2019 19:00:00 10,5 8,1 8,1 16,1 16,5 3 1 11 6 SE 1015,9 60 30 0,0
15.10.2019 18:00:00 11,1 7,4 9,8 16,1 16,5 6 3 21 11 ESE 1014,8 60 0 0,0
15.10.2019 17:00:00 12,4 8,3 11,9 16,1 16,5 9 5 18 10 N 1014,2 60 0 0,0
15.10.2019 16:00:00 12,2 9,6 11,9 16,1 16,5 13 7 24 13 N 1013,5 50 0 0,4
15.10.2019 15:00:00 12,4 10,1 10,5 16,0 16,5 6 3 45 24 NE 1012,9 42 0 0,8
15.10.2019 14:00:00 14,8 9,6 15,6 15,8 16,5 14 8 26 14 WSW 1011,4 57 6 0,0
15.10.2019 13:00:00 15,6 11,4 13,1 15,8 16,5 13 7 24 13 SSW 1011,1 60 10 0,0
15.10.2019 12:00:00 13,5 10,8 - 15,8 16,5 9 5 - - S 1010,6 52 - -
15.10.2019 11:00:00 - - - - - - - - - - - 45 - -
15.10.2019 10:00:00 - - - - - - - - - - - - - -
15.10.2019 09:00:00 - - - - - - - - - - - - - -
15.10.2019 08:00:00 - - - - - - - - - - - - - -
15.10.2019 07:00:00 - - - - - - - - - - - - - -
15.10.2019 06:00:00 - - - - - - - - - - - - - -
15.10.2019 05:00:00 - - - - - - - - - - - - - -
15.10.2019 04:00:00 - - - - - - - - - - - - - -
15.10.2019 03:00:00 18,9 13,5 16,5 17,0 16,5 26 14 44 24 S 1006,5 20 0 0,2
15.10.2019 02:00:00 19,7 12,5 18,6 17,1 16,5 18 10 45 24 S 1006,9 45 0 0,0
15.10.2019 01:00:00 20,0 12,5 18,6 17,2 16,5 19 10 41 22 S 1007,6 41 0 0,0
15.10.2019 00:00:00 19,7 12,7 18,7 17,2 16,5 29 16 55 30 SSE 1008,2 39 0 0,0
14.10.2019 23:00:00 20,2 12,7 19,0 17,3 16,5 38 21 60 33 S 1008,6 42 0 0,0
14.10.2019 22:00:00 20,3 12,8 19,1 17,4 16,5 29 16 56 31 S 1008,8 42 0 0,0
14.10.2019 21:00:00 20,5 12,7 18,4 17,5 16,5 16 9 40 22 S 1009,3 42 0 0,0
14.10.2019 20:00:00 20,4 12,4 17,5 17,5 16,5 13 7 31 17 S 1009,7 40 0 0,0
14.10.2019 19:00:00 20,7 12,7 19,2 17,5 16,5 19 10 59 32 S 1009,8 38 2 0,0
14.10.2019 18:00:00 21,8 12,6 21,9 17,3 16,5 35 19 61 33 S 1009,4 30 45 0,0
14.10.2019 17:00:00 22,9 12,5 22,3 17,1 16,5 29 16 52 28 S 1009,8 59 20 0,0
14.10.2019 16:00:00 22,8 12,4 23,5 16,7 16,5 38 21 63 34 SSW 1010,3 24 50 0,0
14.10.2019 15:00:00 23,2 13,1 25,7 16,3 16,5 36 19 66 36 S 1010,4 20 60 0,0
14.10.2019 14:00:00 23,0 13,2 24,8 15,9 16,5 33 18 66 36 S 1011,6 28 53 0,0
14.10.2019 13:00:00 22,9 12,8 24,8 15,6 16,5 34 18 60 33 S 1012,8 31 58 0,0
14.10.2019 12:00:00 22,2 13,0 24,4 15,4 16,5 34 18 57 31 S 1013,6 40 60 0,0
14.10.2019 11:00:00 20,9 12,8 18,0 15,3 16,5 26 14 44 24 S 1014,6 50 47 0,0
14.10.2019 10:00:00 18,6 11,7 17,8 15,4 16,5 18 10 43 23 SSE 1015,1 48 28 0,0
14.10.2019 09:00:00 18,0 11,1 14,7 15,5 16,5 26 14 43 23 S 1014,5 53 41 0,0
14.10.2019 08:00:00 16,6 10,4 14,5 15,6 16,5 20 11 42 23 SSE 1014,5 57 0 0,0
14.10.2019 07:00:00 16,3 10,6 11,6 15,7 16,5 23 12 35 19 S 1014,7 59 0 0,0
14.10.2019 06:00:00 15,6 10,1 13,7 15,8 16,5 16 8 33 18 S 1014,9 60 0 0,0
14.10.2019 05:00:00 17,3 10,4 14,5 15,9 16,5 24 13 40 22 S 1014,9 59 0 0,0
14.10.2019 04:00:00 16,0 10,7 12,1 16,1 16,5 17 9 26 14 S 1015,5 54 0 0,0
14.10.2019 03:00:00 16,3 10,8 14,1 16,2 16,5 16 9 36 19 S 1016,0 59 0 0,0
14.10.2019 02:00:00 17,9 11,0 14,6 16,4 16,5 24 13 42 23 S 1015,8 60 0 0,0
14.10.2019 01:00:00 16,6 11,5 8,9 16,7 16,5 19 10 30 16 S 1016,3 58 0 0,0
14.10.2019 00:00:00 13,4 9,8 8,5 16,9 16,5 3 2 15 8 SSE 1017,4 51 0 0,0
13.10.2019 23:00:00 14,8 10,2 9,8 17,2 16,5 7 4 13 7 S 1017,4 49 0 0,0
13.10.2019 22:00:00 14,8 9,8 11,1 17,4 16,5 5 3 18 10 SSE 1017,5 52 0 0,0
13.10.2019 21:00:00 17,6 10,5 15,7 17,5 16,5 15 8 34 18 S 1016,6 59 0 0,0
13.10.2019 20:00:00 18,3 11,4 16,4 17,6 16,5 15 8 42 23 SSE 1016,0 52 0 0,0
13.10.2019 19:00:00 19,5 11,3 18,4 17,5 16,5 27 15 46 25 S 1015,1 58 39 0,0
13.10.2019 18:00:00 21,3 11,6 22,2 17,4 16,5 29 16 48 26 S 1014,7 40 60 0,0
13.10.2019 17:00:00 22,8 12,1 24,9 17,1 16,5 32 18 50 27 S 1014,3 20 60 0,0
13.10.2019 16:00:00 23,5 11,9 26,2 16,7 16,5 32 17 59 32 S 1014,4 25 60 0,0
13.10.2019 15:00:00 24,3 11,6 27,0 16,3 16,5 32 17 54 29 S 1014,6 30 60 0,0
13.10.2019 14:00:00 24,0 11,3 26,3 15,8 16,5 21 11 43 23 SSW 1015,1 39 60 0,0
13.10.2019 13:00:00 23,6 9,9 22,4 15,5 16,5 17 9 51 28 SSW 1015,7 20 54 0,0
13.10.2019 12:00:00 22,0 8,1 22,9 15,3 16,5 32 17 54 29 S 1016,1 37 60 0,0
13.10.2019 11:00:00 20,4 8,1 18,7 15,2 16,5 27 15 46 25 S 1016,3 45 48 0,0
13.10.2019 10:00:00 18,6 8,0 16,7 15,2 16,5 19 10 42 23 S 1016,8 42 50 0,0
13.10.2019 09:00:00 17,1 8,2 15,7 15,3 16,5 19 11 39 21 S 1016,3 50 4 0,0
13.10.2019 08:00:00 17,1 9,3 15,5 15,4 16,5 16 9 41 22 SSW 1015,9 60 0 0,0
13.10.2019 07:00:00 16,6 10,0 15,3 15,4 16,5 23 13 45 24 S 1015,3 59 0 0,0
13.10.2019 06:00:00 17,4 10,7 16,1 15,5 16,5 25 13 50 27 S 1015,4 57 0 0,0
13.10.2019 05:00:00 18,1 11,9 16,2 15,5 16,5 29 16 45 24 S 1015,5 57 0 0,0
13.10.2019 04:00:00 17,4 11,9 15,8 15,6 16,5 18 10 35 19 S 1016,2 60 0 0,0
13.10.2019 03:00:00 17,9 12,1 16,1 15,7 16,5 19 10 45 25 S 1016,7 60 0 0,0
13.10.2019 02:00:00 17,9 12,3 16,3 15,7 16,5 25 14 45 24 S 1016,7 57 0 0,0
13.10.2019 01:00:00 18,4 12,6 17,1 15,8 16,5 16 8 37 20 SSE 1017,2 55 0 0,0
13.10.2019 00:00:00 18,6 12,8 16,3 15,9 16,5 21 12 35 19 SSE 1017,0 60 0 0,0
12.10.2019 23:00:00 17,9 13,0 16,3 15,9 16,5 13 7 29 16 S 1017,0 60 0 0,0
12.10.2019 22:00:00 18,1 13,0 16,7 16,0 16,5 19 10 34 18 S 1016,8 60 0 0,0
12.10.2019 21:00:00 18,7 12,9 17,1 16,0 16,5 20 11 35 19 S 1016,8 60 0 0,0
12.10.2019 20:00:00 18,9 12,9 17,2 16,0 16,6 11 6 33 18 SSE 1016,7 60 0 0,0
12.10.2019 19:00:00 20,4 13,1 19,3 15,9 16,6 20 11 43 23 S 1016,0 60 25 0,0
12.10.2019 18:00:00 20,8 13,2 19,9 15,7 16,6 24 13 41 22 S 1015,5 59 0 0,0
12.10.2019 17:00:00 21,4 13,8 21,0 15,5 16,6 24 13 48 26 S 1015,6 60 0 0,0
12.10.2019 16:00:00 21,8 14,2 21,7 15,3 16,6 23 12 41 22 S 1015,7 58 0 0,0
12.10.2019 15:00:00 21,3 14,0 21,9 14,9 16,5 25 13 42 23 S 1016,1 55 0 0,0
12.10.2019 14:00:00 21,6 14,5 21,4 14,7 16,6 22 12 42 23 S 1016,4 54 0 0,0
12.10.2019 13:00:00 21,4 13,6 20,9 14,3 16,6 29 15 48 26 S 1016,6 60 3 0,0
12.10.2019 12:00:00 21,4 13,3 21,7 14,0 16,6 8 5 49 27 SW 1016,9 60 13 0,0
12.10.2019 11:00:00 22,2 13,8 19,9 13,8 16,6 24 13 47 25 S 1015,8 20 52 0,0
12.10.2019 10:00:00 19,3 13,7 18,6 13,8 16,6 16 8 32 17 SSW 1016,5 42 45 0,0
12.10.2019 09:00:00 14,0 12,7 6,4 13,9 16,6 5 3 9 5 S 1017,1 45 44 0,0
12.10.2019 08:00:00 9,5 8,7 5,9 14,1 16,6 2 1 8 5 SSE 1017,8 20 0 0,0
12.10.2019 07:00:00 9,4 8,0 6,2 14,3 16,6 4 2 9 5 SE 1018,5 39 0 0,0
12.10.2019 06:00:00 9,8 8,4 6,5 14,4 16,6 4 2 16 9 NE 1018,5 38 0 0,0
12.10.2019 05:00:00 11,4 9,0 6,7 14,7 16,6 11 6 17 9 S 1018,2 54 0 0,0
12.10.2019 04:00:00 10,5 8,1 6,7 14,9 16,6 6 3 10 6 ESE 1018,8 51 0 0,0
12.10.2019 03:00:00 10,2 7,4 7,1 15,1 16,6 6 3 14 8 E 1019,4 52 0 0,0
12.10.2019 02:00:00 13,9 7,2 7,1 15,3 16,7 10 5 17 9 SSW 1019,0 60 0 0,0
12.10.2019 01:00:00 15,1 7,9 10,1 15,5 16,6 9 5 16 9 SSW 1018,6 60 0 0,0
12.10.2019 00:00:00 15,5 8,2 11,6 15,7 16,7 5 3 24 13 SW 1018,5 60 0 0,0
11.10.2019 23:00:00 17,0 7,9 10,1 16,0 16,7 13 7 24 13 SSW 1018,3 60 0 0,0
11.10.2019 22:00:00 14,7 7,5 10,4 16,2 16,7 7 4 19 10 SSE 1018,3 60 0 0,0
11.10.2019 21:00:00 16,3 7,2 12,5 16,3 16,7 11 6 27 14 S 1017,7 60 0 0,0
11.10.2019 20:00:00 18,6 7,7 13,5 16,4 16,7 16 9 29 16 S 1017,1 60 0 0,0
11.10.2019 19:00:00 18,8 7,9 16,9 16,3 16,7 19 11 30 16 S 1016,4 60 42 0,0
11.10.2019 18:00:00 23,1 7,6 24,2 16,0 16,7 17 9 30 16 S 1015,5 20 60 0,0
11.10.2019 17:00:00 24,1 6,8 26,6 15,5 16,7 22 12 31 17 S 1015,4 59 60 0,0
11.10.2019 16:00:00 23,7 9,7 27,2 15,0 16,7 13 7 21 11 SSE 1015,9 56 60 0,0
11.10.2019 15:00:00 22,4 10,2 25,3 14,3 16,7 10 6 24 13 SSE 1016,8 18 60 0,0
11.10.2019 14:00:00 20,0 10,1 23,3 13,8 16,7 14 8 25 14 SSE 1018,3 20 60 0,0
11.10.2019 13:00:00 17,7 9,3 21,2 13,4 16,7 9 5 22 12 SSE 1019,7 20 60 0,0
11.10.2019 12:00:00 16,0 9,0 19,5 13,1 16,8 16 8 24 13 S 1020,8 60 60 0,0
11.10.2019 11:00:00 13,6 8,4 17,0 13,0 16,7 10 5 16 9 S 1021,9 60 60 0,0
11.10.2019 10:00:00 11,5 8,0 11,7 13,1 16,8 9 5 16 9 SSE 1022,5 60 60 0,0
11.10.2019 09:00:00 9,0 7,4 3,7 13,3 16,7 10 5 15 8 S 1022,6 53 45 0,0
11.10.2019 08:00:00 6,2 5,2 1,6 13,5 16,8 10 6 14 7 S 1022,8 57 0 0,0
11.10.2019 07:00:00 6,7 5,8 1,5 13,8 16,7 6 4 15 8 SSE 1022,8 59 0 0,0
11.10.2019 06:00:00 6,2 5,5 1,0 14,0 16,7 10 5 13 7 S 1022,9 58 0 0,0
11.10.2019 05:00:00 6,5 5,9 1,6 14,3 16,8 8 4 10 5 S 1023,4 53 0 0,0
11.10.2019 04:00:00 6,1 5,1 2,4 14,6 16,8 5 3 10 5 SE 1024,0 39 0 0,0
11.10.2019 03:00:00 8,5 7,3 2,1 14,9 16,8 6 3 11 6 SSW 1024,1 56 0 0,0
11.10.2019 02:00:00 6,6 6,2 2,8 15,2 16,8 3 1 8 4 S 1024,7 1,5 0 0,0
11.10.2019 01:00:00 6,7 6,1 3,4 15,5 16,8 3 2 10 6 ENE 1024,6 23 0 0,0
11.10.2019 00:00:00 7,7 6,9 3,7 15,8 16,8 6 3 8 5 S 1024,5 20 0 0,0
10.10.2019 23:00:00 8,9 7,8 4,8 16,0 16,8 2 1 7 4 S 1024,3 43 0 0,0
10.10.2019 22:00:00 10,1 8,4 6,7 16,3 16,8 2 1 11 6 NNE 1023,7 53 0 0,0
10.10.2019 21:00:00 10,4 7,8 7,5 16,4 16,8 8 5 11 6 S 1023,3 60 0 0,0
10.10.2019 20:00:00 13,6 9,4 10,7 16,5 16,8 4 2 9 5 NNE 1022,9 60 0 0,0
10.10.2019 19:00:00 15,0 9,4 13,9 16,4 16,8 8 4 11 6 NNE 1022,3 60 15 0,0
10.10.2019 18:00:00 16,7 8,4 17,7 16,2 16,8 6 3 12 6 NE 1022,0 60 29 0,0
10.10.2019 17:00:00 16,3 8,8 17,3 15,8 16,8 3 2 14 7 NNE 1022,0 60 17 0,0
10.10.2019 16:00:00 17,1 8,5 21,3 15,5 16,8 6 3 20 11 NE 1021,8 50 60 0,0
10.10.2019 15:00:00 16,6 8,3 18,5 15,1 16,8 11 6 17 9 N 1022,1 60 16 0,0
10.10.2019 14:00:00 16,1 8,8 17,2 14,8 16,8 3 2 21 12 NE 1022,5 60 0 0,0
10.10.2019 13:00:00 15,9 7,9 17,3 14,5 16,8 6 3 15 8 E 1022,6 60 11 0,0
10.10.2019 12:00:00 15,2 7,2 16,0 14,3 16,8 5 3 11 6 S 1022,9 60 2 0,0
10.10.2019 11:00:00 15,0 7,3 16,1 14,2 16,8 7 4 18 10 SW 1022,8 60 41 0,0
10.10.2019 10:00:00 13,6 8,2 11,4 14,3 16,8 8 4 13 7 SE 1022,6 60 15 0,0
10.10.2019 09:00:00 11,3 8,0 10,1 14,4 16,8 9 5 18 10 S 1022,1 60 0 0,0
10.10.2019 08:00:00 10,6 7,5 8,9 14,5 16,8 11 6 19 10 SSW 1021,7 60 0 0,0
10.10.2019 07:00:00 9,7 7,6 6,1 14,8 16,8 9 5 25 14 S 1021,7 60 0 0,0
10.10.2019 06:00:00 7,9 5,7 3,9 15,1 16,8 9 5 19 10 SSE 1021,4 60 0 0,0
10.10.2019 05:00:00 7,9 4,8 4,7 15,3 16,8 8 4 15 8 S 1021,4 60 0 0,0
10.10.2019 04:00:00 10,1 6,4 7,3 15,5 16,8 4 2 16 9 ESE 1021,0 60 0 0,0
10.10.2019 03:00:00 12,5 6,5 9,2 15,7 16,8 12 7 20 11 SW 1020,6 60 0 0,0
10.10.2019 02:00:00 10,7 6,8 7,6 16,0 16,8 6 3 19 10 SSE 1020,9 60 0 0,0
10.10.2019 01:00:00 12,3 6,6 10,9 16,2 16,8 11 6 21 11 SW 1020,4 60 0 0,0
10.10.2019 00:00:00 12,8 7,0 10,9 16,4 16,8 9 5 19 10 WSW 1020,2 60 0 0,0
09.10.2019 23:00:00 12,5 7,6 10,1 16,7 16,8 12 7 18 10 S 1020,2 60 0 0,0
09.10.2019 22:00:00 11,7 7,8 9,2 16,9 16,8 9 5 18 10 S 1020,0 60 0 0,0
09.10.2019 21:00:00 14,5 7,1 12,7 17,1 16,8 8 4 18 10 WSW 1019,3 60 0 0,0

tt = Température de l'air
td = dewpoint
tt 5cm = Température de l'air 5cm
tt -20cm = Température de l'air -20cm
tt -100cm = Température de l'air -100cm
ff = Vitesse du vent
fx = gusts
dd = Direction du vent
ppp = reduced air pressure
vv = visibility
sd = Ensoleillement
rr = Quantités de précipitations

stations d'obs. à proximité